Regional Weather Roundup
Issued by NWS Sioux Falls, SD

Home | Current Version | Previous Version | Text Only | Print | Product List | Glossary Off
Versions: 1 2 3 4 5 6 7 8 9 10 11 12 13 14 15 16 17 18 19 20 21 22 23 24 25 26 27 28 29 30 31 32 33 34 35 36 37 38 39 40 41 42 43 44 45 46 47 48 49 50

000
ASUS43 KFSD 310202
RWRFSD

WEATHER ROUNDUP FOR SE SOUTH DAKOTA/SW MINNESOTA/NW IOWA
NATIONAL WEATHER SERVICE SIOUX FALLS SD
900 PM CDT SUN AUG 30 2015

NOTE: "FAIR" INDICATES FEW OR NO CLOUDS BELOW 12,000 FEET WITH NO
SIGNIFICANT WEATHER AND OR OBSTRUCTIONS TO VISIBILITY.


SDZ038>040-050-052>070-310300-
SOUTHEAST SOUTH DAKOTA

CITY           SKY/WX    TMP DP  RH WIND       PRES   REMARKS
BROOKINGS      PTCLDY    66  63  88 S14       29.89S
CHAMBERLAIN    PTCLDY    74  66  75 SE12      29.76R
HURON          MOCLDY    74  67  78 S17G26    29.78R
MADISON        FAIR      66  66 100 S16G22    29.88S
MITCHELL       PTCLDY    73  66  78 SE16      29.83R
SIOUX FALLS    MOCLDY    68  65  90 S10       29.90R
WINNER         FAIR      83  51  33 S22       29.74S
YANKTON        CLEAR     70  66  88 SE7       29.88R
$$

MNZ071-072-080-081-089-090-097-098-310300-
SOUTHWEST MINNESOTA

CITY           SKY/WX    TMP DP  RH WIND       PRES   REMARKS
FAIRMONT       CLEAR     66  61  82 S8        29.95S
JACKSON        CLEAR     68  64  88 S10       29.96R
LUVERNE        CLEAR     64  63  94 S3        29.93R
MARSHALL       CLEAR     70  61  73 S12       29.89R
MONTEVIDEO     PTCLDY    70  64  83 S9        29.88R
PIPESTONE      PTCLDY    64  63  94 S9        29.92R
REDWOOD FALLS  PTCLDY    70  66  87 S10       29.89R
TRACY          CLEAR     70  66  88 S15       29.89S
WINDOM         CLEAR     70  64  83 S8        29.94R
WORTHINGTON    CLEAR     66  61  82 S10       29.94S
$$

IAZ001>003-012>014-020>022-031-032-NEZ013-014-SDZ071-310300-
NORTHWEST IOWA

CITY           SKY/WX    TMP DP  RH WIND       PRES   REMARKS
DENISON        CLOUDY    68  66  94 CALM      29.96R
ESTHERVILLE    CLEAR     64  64 100 S7        29.96R
SIOUX CITY     NOT AVBL
SPENCER        FOG       65  62  90 S7        29.96R VSB 3/4
$$

ABBREVIATIONS USED IN REMARKS
   TC - TEMPERATURE IN CELSIUS
  WCI - WIND CHILL INDEX
   HX - HEAT INDEX
  VSB - VISIBILITY



USA.gov is the U.S. government's official web portal to all federal, state and local government web resources and services.